Flag for U.S.A. Weather past 2 weeks in Boston, Massachusetts, U.S.A.

Now
35 °F

Scattered clouds.


Feels Like: 24 °F
Forecast: 35 / 42 °F
Wind: 22 mph from Northwest

Location: Logan International Airport


UV Index: 5 (Moderate)

Visibility: 10 mi


Pressure: 30.23 "Hg

Humidity: 52%

Dew point: 19 °F

Location of BostonLocation

Historic Weather in Boston

°F

Boston temperature yesterday

Maximum temperature yesterday: 68 °F (at 12:54 PM)
Minimum temperature yesterday: 46 °F (at 11:54 PM)
Average temperature yesterday: 60 °F

Past Weeks' High & Low Weather Summary

 TemperatureHumidityPressure
High75 °F (Apr 14, 11:54 AM)100% (Apr 8, 1:03 AM)30.28 "Hg (Apr 8, 1:03 AM)
Low31 °F (Apr 16, 7:54 AM)18% (Apr 6, 5:54 PM)29.31 "Hg (Apr 8, 5:54 PM)
Average49 °F60%29.96 "Hg
* Reported Apr 1 9:54 AM — Apr 16 9:54 AM, Boston, Weather by CustomWeather, © 2014

Note: Actual official high and low records may vary slightly from our data, if they occured in-between our weather recording intervals... More about our weather records

Advertising

Historic Weather Conditions — Data for Previous 24 hours

 ConditionsComfort  
Time TempWeatherWind HumidityBarometerVisibility
9:54 AM
Apr 16
35 °FScattered clouds.22 mph52%30.23 "Hg10 mi
8:54 AM33 °FScattered clouds.20 mph54%30.19 "Hg10 mi
7:54 AM31 °FScattered clouds.16 mph61%30.15 "Hg10 mi
6:54 AM33 °FPartly cloudy.22 mph58%30.05 "Hg10 mi
5:54 AM35 °FOvercast.12 mph78%29.93 "Hg10 mi
4:54 AM34 °FSleet. Fog.12 mph88%29.90 "Hg4 mi
3:58 AM36 °FLight snow. Fog.13 mph87%29.84 "Hg2 mi
2:54 AM39 °FLight rain. Mostly cloudy.15 mph79%29.81 "Hg7 mi
1:54 AM40 °FLight rain. Mostly cloudy.15 mph83%29.78 "Hg6 mi
1:01 AM41 °FRain. Fog.20 mph87%29.78 "Hg3 mi
11:54 PM
Apr 15
46 °FRain. Overcast.20 mph83%29.72 "Hg6 mi
10:54 PM50 °FLight rain. Mostly cloudy.15 mph86%29.67 "Hg8 mi
10:01 PM55 °FLight rain. Fog.15 mph94%29.63 "Hg6 mi
8:54 PM61 °FRain. Fog.22 mph90%29.57 "Hg3 mi
6:54 PM60 °FLight rain. Mostly cloudy.22 mph86%29.58 "Hg10 mi
5:54 PM62 °FLight rain. Mostly cloudy.30 mph83%29.59 "Hg5 mi
4:54 PM63 °FMostly cloudy.33 mph81%29.60 "Hg8 mi
3:54 PM61 °FLight rain. Fog.28 mph87%29.61 "Hg2 mi
2:54 PM62 °FLight rain. Fog.30 mph86%29.64 "Hg4 mi
1:54 PM63 °FLight rain. Mostly cloudy.43 mph81%29.67 "Hg5 mi
12:54 PM68 °FMostly cloudy.36 mph63%29.69 "Hg10 mi
11:54 AM65 °FMostly cloudy.29 mph68%29.74 "Hg10 mi
10:54 AM62 °FCloudy.25 mph80%29.77 "Hg2 mi
Weather by CustomWeather, © 2014

See weather overview